Time,TemperatureF,DewpointF,PressureIn,WindDirection,WindDirectionDegrees,WindSpeedMPH,WindSpeedGustMPH,Humidity,HourlyPrecipIn,Conditions,Clouds,dailyrainin,SoftwareType,DateUTC
2013-04-01 00:03:00,22.7,13.4,30.16,NW,315,11.5,11.5,67,0.00,CLR,,0.00,WeatherDisplay:10.37,2013-04-01 05:03:00,
2013-04-01 00:08:00,22.5,13.2,30.16,NW,309,8.1,8.1,67,0.00,CLR,,0.00,WeatherDisplay:10.37,2013-04-01 05:08:00,
2013-04-01 00:13:00,22.3,13.0,30.16,WNW,295,11.5,11.5,67,0.00,CLR,,0.00,WeatherDisplay:10.37,2013-04-01 05:13:00,
2013-04-01 00:18:00,22.1,12.8,30.16,NW,321,13.8,13.8,67,0.00,CLR,,0.00,WeatherDisplay:10.37,2013-04-01 05:18:00,
2013-04-01 00:23:00,22.0,13.0,30.16,NNW,332,10.4,10.4,68,0.00,CLR,,0.00,WeatherDisplay:10.37,2013-04-01 05:23:00,
2013-04-01 00:28:00,21.9,13.0,30.16,NNW,336,6.9,6.9,68,0.00,CLR,,0.00,WeatherDisplay:10.37,2013-04-01 05:28:00,
2013-04-01 00:33:00,21.8,12.9,30.17,NW,326,9.2,9.2,68,0.00,CLR,,0.00,WeatherDisplay:10.37,2013-04-01 05:33:00,
2013-04-01 00:38:00,21.6,12.7,30.17,NNW,344,6.0,6.0,68,0.00,CLR,,0.00,WeatherDisplay:10.37,2013-04-01 05:38:00,
2013-04-01 00:43:00,21.5,12.6,30.17,NW,313,13.8,13.8,68,0.00,CLR,,0.00,WeatherDisplay:10.37,2013-04-01 05:43:00,
2013-04-01 00:48:00,21.5,12.6,30.17,NW,313,5.8,5.8,68,0.00,CLR,,0.00,WeatherDisplay:10.37,2013-04-01 05:48:00,
2013-04-01 00:53:00,21.4,12.8,30.17,NW,323,6.9,6.9,69,0.00,CLR,,0.00,WeatherDisplay:10.37,2013-04-01 05:53:00,
2013-04-01 00:58:00,21.3,12.7,30.18,NW,315,5.8,5.8,69,0.00,CLR,,0.00,WeatherDisplay:10.37,2013-04-01 05:58:00,
2013-04-01 01:03:00,21.3,12.7,30.17,WNW,299,6.9,6.9,69,0.00,CLR,,0.00,WeatherDisplay:10.37,2013-04-01 06:03:00,
2013-04-01 01:08:00,21.2,12.6,30.18,NNW,336,3.5,3.5,69,0.00,CLR,,0.00,WeatherDisplay:10.37,2013-04-01 06:08:00,
2013-04-01 01:13:00,21.1,12.5,30.18,NW,320,4.6,4.6,69,0.00,CLR,,0.00,WeatherDisplay:10.37,2013-04-01 06:13:00,
2013-04-01 01:18:00,20.9,12.3,30.18,NW,313,4.6,4.6,69,0.00,CLR,,0.00,WeatherDisplay:10.37,2013-04-01 06:18:00,
2013-04-01 01:23:00,20.8,12.6,30.18,NW,315,10.4,10.4,70,0.00,CLR,,0.00,WeatherDisplay:10.37,2013-04-01 06:23:00,
2013-04-01 01:28:00,20.8,12.2,30.19,NW,312,9.2,9.2,69,0.00,CLR,,0.00,WeatherDisplay:10.37,2013-04-01 06:28:00,
2013-04-01 01:33:00,20.7,12.5,30.18,NNW,332,10.4,10.4,70,0.00,CLR,,0.00,WeatherDisplay:10.37,2013-04-01 06:33:00,
2013-04-01 01:38:00,20.6,12.4,30.19,NW,318,11.5,11.5,70,0.00,CLR,,0.00,WeatherDisplay:10.37,2013-04-01 06:38:00,
2013-04-01 01:43:00,20.5,12.3,30.19,NNW,330,4.6,4.6,70,0.00,CLR,,0.00,WeatherDisplay:10.37,2013-04-01 06:43:00,
2013-04-01 01:48:00,20.4,12.2,30.19,North,350,8.1,8.1,70,0.00,CLR,,0.00,WeatherDisplay:10.37,2013-04-01 06:48:00,
2013-04-01 01:54:00,20.4,12.2,30.19,NNW,327,4.6,4.6,70,0.00,CLR,,0.00,WeatherDisplay:10.37,2013-04-01 06:54:00,
2013-04-01 01:59:00,20.4,12.2,30.19,NNW,336,10.4,10.4,70,0.00,CLR,,0.00,WeatherDisplay:10.37,2013-04-01 06:59:00,
2013-04-01 02:04:00,20.3,12.1,30.19,WNW,303,3.5,3.5,70,0.00,CLR,,0.00,WeatherDisplay:10.37,2013-04-01 07:04:00,
2013-04-01 02:09:00,20.2,12.0,30.20,NNW,328,6.9,6.9,70,0.00,CLR,,0.00,WeatherDisplay:10.37,2013-04-01 07:09:00,
2013-04-01 02:14:00,20.1,11.9,30.20,WNW,299,2.3,2.3,70,0.00,CLR,,0.00,WeatherDisplay:10.37,2013-04-01 07:14:00,
2013-04-01 02:19:00,20.0,11.8,30.20,WNW,298,10.4,10.4,70,0.00,CLR,,0.00,WeatherDisplay:10.37,2013-04-01 07:19:00,
2013-04-01 02:24:00,19.9,11.7,30.20,NW,321,4.6,4.6,70,0.00,CLR,,0.00,WeatherDisplay:10.37,2013-04-01 07:24:00,
2013-04-01 02:29:00,20.0,11.8,30.20,NW,324,4.6,4.6,70,0.00,CLR,,0.00,WeatherDisplay:10.37,2013-04-01 07:29:00,
2013-04-01 02:34:00,19.9,11.7,30.20,NW,305,11.5,11.5,70,0.00,CLR,,0.00,WeatherDisplay:10.37,2013-04-01 07:34:00,
2013-04-01 02:39:00,19.7,11.5,30.20,NNW,336,8.1,8.1,70,0.00,CLR,,0.00,WeatherDisplay:10.37,2013-04-01 07:39:00,
2013-04-01 02:44:00,19.7,11.5,30.20,NW,320,3.5,3.5,70,0.00,CLR,,0.00,WeatherDisplay:10.37,2013-04-01 07:44:00,
2013-04-01 02:49:00,19.7,11.8,30.20,NW,326,3.5,3.5,71,0.00,CLR,,0.00,WeatherDisplay:10.37,2013-04-01 07:49:00,
2013-04-01 02:54:00,19.7,11.8,30.20,NW,321,6.9,6.9,71,0.00,CLR,,0.00,WeatherDisplay:10.37,2013-04-01 07:54:00,
2013-04-01 02:59:00,19.5,11.6,30.20,NW,316,9.2,9.2,71,0.00,CLR,,0.00,WeatherDisplay:10.37,2013-04-01 07:59:00,
2013-04-01 03:04:00,19.4,11.5,30.21,NNW,329,3.5,3.5,71,0.00,CLR,,0.00,WeatherDisplay:10.37,2013-04-01 08:04:00,
2013-04-01 03:09:00,19.4,11.5,30.21,NW,311,6.9,6.9,71,0.00,CLR,,0.00,WeatherDisplay:10.37,2013-04-01 08:09:00,
2013-04-01 03:14:00,19.3,11.7,30.21,NW,316,4.6,4.6,72,0.00,CLR,,0.00,WeatherDisplay:10.37,2013-04-01 08:14:00,
2013-04-01 03:19:00,19.2,11.3,30.21,NW,311,4.6,4.6,71,0.00,CLR,,0.00,WeatherDisplay:10.37,2013-04-01 08:19:00,
2013-04-01 03:24:00,19.1,11.6,30.21,NW,323,5.8,5.8,72,0.00,CLR,,0.00,WeatherDisplay:10.37,2013-04-01 08:24:00,
2013-04-01 03:29:00,19.0,11.5,30.21,NW,326,5.8,5.8,72,0.00,CLR,,0.00,WeatherDisplay:10.37,2013-04-01 08:29:00,
2013-04-01 03:34:00,19.0,11.1,30.21,NNW,331,5.8,5.8,71,0.00,CLR,,0.00,WeatherDisplay:10.37,2013-04-01 08:34:00,
2013-04-01 03:39:00,18.9,11.4,30.21,NW,304,5.8,5.8,72,0.00,CLR,,0.00,WeatherDisplay:10.37,2013-04-01 08:39:00,
2013-04-01 03:44:00,18.8,11.3,30.22,NW,325,3.5,3.5,72,0.00,CLR,,0.00,WeatherDisplay:10.37,2013-04-01 08:44:00,
2013-04-01 03:49:00,18.8,11.3,30.22,NW,313,2.3,2.3,72,0.00,CLR,,0.00,WeatherDisplay:10.37,2013-04-01 08:49:00,
2013-04-01 03:54:00,18.7,11.2,30.22,NW,316,3.5,3.5,72,0.00,CLR,,0.00,WeatherDisplay:10.37,2013-04-01 08:54:00,
2013-04-01 03:59:00,18.6,11.1,30.22,NW,325,4.6,4.6,72,0.00,CLR,,0.00,WeatherDisplay:10.37,2013-04-01 08:59:00,
2013-04-01 04:04:00,18.6,11.1,30.22,WNW,302,3.5,4.5,72,0.00,CLR,,0.00,WeatherDisplay:10.37,2013-04-01 09:04:00,
2013-04-01 04:09:00,18.5,11.3,30.22,NW,323,8.1,8.1,73,0.00,CLR,,0.00,WeatherDisplay:10.37,2013-04-01 09:09:00,
2013-04-01 04:14:00,18.4,11.2,30.22,WNW,303,5.8,5.8,73,0.00,CLR,,0.00,WeatherDisplay:10.37,2013-04-01 09:14:00,
2013-04-01 04:19:00,18.4,10.9,30.22,NW,322,3.5,3.5,72,0.00,CLR,,0.00,WeatherDisplay:10.37,2013-04-01 09:19:00,
2013-04-01 04:24:00,18.3,11.1,30.23,NW,322,3.5,3.5,73,0.00,CLR,,0.00,WeatherDisplay:10.37,2013-04-01 09:24:00,
2013-04-01 04:30:00,18.2,11.0,30.23,NW,323,4.6,4.6,73,0.00,CLR,,0.00,WeatherDisplay:10.37,2013-04-01 09:30:00,
2013-04-01 04:35:00,18.2,11.0,30.23,NW,323,4.6,4.6,73,0.00,CLR,,0.00,WeatherDisplay:10.37,2013-04-01 09:35:00,
2013-04-01 04:40:00,18.2,11.0,30.23,NW,326,5.0,5.0,73,0.00,CLR,,0.00,WeatherDisplay:10.37,2013-04-01 09:40:00,
2013-04-01 04:45:00,18.1,10.9,30.23,NW,306,3.5,3.5,73,0.00,CLR,,0.00,WeatherDisplay:10.37,2013-04-01 09:45:00,
2013-04-01 04:50:00,18.0,10.8,30.23,WNW,302,3.5,3.5,73,0.00,CLR,,0.00,WeatherDisplay:10.37,2013-04-01 09:50:00,
2013-04-01 04:55:00,17.9,10.7,30.24,NW,306,3.5,3.5,73,0.00,CLR,,0.00,WeatherDisplay:10.37,2013-04-01 09:55:00,
2013-04-01 05:00:00,17.9,11.0,30.24,NW,313,5.8,5.8,74,0.00,CLR,,0.00,WeatherDisplay:10.37,2013-04-01 10:00:00,
2013-04-01 05:05:00,17.9,11.0,30.24,NNW,327,4.6,4.6,74,0.00,CLR,,0.00,WeatherDisplay:10.37,2013-04-01 10:05:00,
2013-04-01 05:10:00,17.7,10.8,30.24,NW,325,3.5,3.5,74,0.00,CLR,,0.00,WeatherDisplay:10.37,2013-04-01 10:10:00,
2013-04-01 05:15:00,17.7,10.8,30.24,NW,311,3.5,3.5,74,0.00,CLR,,0.00,WeatherDisplay:10.37,2013-04-01 10:15:00,
2013-04-01 05:20:00,17.6,10.7,30.24,WNW,303,4.0,4.0,74,0.00,CLR,,0.00,WeatherDisplay:10.37,2013-04-01 10:20:00,
2013-04-01 05:25:00,17.5,10.6,30.25,NW,325,4.6,4.6,74,0.00,CLR,,0.00,WeatherDisplay:10.37,2013-04-01 10:25:00,
2013-04-01 05:30:00,17.5,10.6,30.25,NW,317,4.6,4.6,74,0.00,CLR,,0.00,WeatherDisplay:10.37,2013-04-01 10:30:00,
2013-04-01 05:35:00,17.4,10.8,30.25,NW,316,3.5,3.5,75,0.00,CLR,,0.00,WeatherDisplay:10.37,2013-04-01 10:35:00,
2013-04-01 05:40:00,17.3,10.7,30.25,NW,324,3.5,3.5,75,0.00,CLR,,0.00,WeatherDisplay:10.37,2013-04-01 10:40:00,
2013-04-01 05:45:00,17.2,10.6,30.25,NW,307,3.5,3.5,75,0.00,CLR,,0.00,WeatherDisplay:10.37,2013-04-01 10:45:00,
2013-04-01 05:50:00,17.2,10.6,30.25,NW,316,5.8,5.8,75,0.00,CLR,,0.00,WeatherDisplay:10.37,2013-04-01 10:50:00,
2013-04-01 05:55:00,17.2,10.6,30.25,NW,314,3.5,3.5,75,0.00,CLR,,0.00,WeatherDisplay:10.37,2013-04-01 10:55:00,
2013-04-01 06:00:00,17.1,10.5,30.26,NW,316,3.5,3.5,75,0.00,CLR,,0.00,WeatherDisplay:10.37,2013-04-01 11:00:00,
2013-04-01 06:05:00,17.0,10.4,30.26,NW,316,3.5,3.5,75,0.00,CLR,,0.00,WeatherDisplay:10.37,2013-04-01 11:05:00,
2013-04-01 06:10:00,17.0,10.4,30.26,NW,319,4.6,4.6,75,0.00,CLR,,0.00,WeatherDisplay:10.37,2013-04-01 11:10:00,
2013-04-01 06:15:00,16.9,10.3,30.26,NW,308,3.5,3.5,75,0.00,CLR,,0.00,WeatherDisplay:10.37,2013-04-01 11:15:00,
2013-04-01 06:20:00,16.9,10.3,30.26,NW,309,3.5,3.5,75,0.00,CLR,,0.00,WeatherDisplay:10.37,2013-04-01 11:20:00,
2013-04-01 06:25:00,16.9,10.3,30.26,NNW,329,4.0,4.0,75,0.00,CLR,,0.00,WeatherDisplay:10.37,2013-04-01 11:25:00,
2013-04-01 06:30:00,16.9,10.0,30.26,NNW,327,10.4,10.4,74,0.00,CLR,,0.00,WeatherDisplay:10.37,2013-04-01 11:30:00,
2013-04-01 06:35:00,16.8,10.2,30.26,NW,317,3.5,3.5,75,0.00,CLR,,0.00,WeatherDisplay:10.37,2013-04-01 11:35:00,
2013-04-01 06:40:00,16.7,10.1,30.27,WNW,300,4.6,4.6,75,0.00,CLR,,0.00,WeatherDisplay:10.37,2013-04-01 11:40:00,
2013-04-01 06:45:00,16.7,10.1,30.27,NW,325,5.8,5.8,75,0.00,CLR,,0.00,WeatherDisplay:10.37,2013-04-01 11:45:00,
2013-04-01 06:50:00,16.7,9.8,30.27,NW,319,3.5,3.5,74,0.00,CLR,,0.00,WeatherDisplay:10.37,2013-04-01 11:50:00,
2013-04-01 06:55:00,16.7,9.8,30.27,NW,324,4.6,4.6,74,0.00,CLR,,0.00,WeatherDisplay:10.37,2013-04-01 11:55:00,
2013-04-01 07:00:00,16.6,10.1,30.28,NNW,327,4.6,4.6,75,0.00,CLR,,0.00,WeatherDisplay:10.37,2013-04-01 12:00:00,
2013-04-01 07:05:00,16.6,10.1,30.28,WNW,302,2.3,2.3,75,0.00,CLR,,0.00,WeatherDisplay:10.37,2013-04-01 12:05:00,
2013-04-01 07:10:00,16.7,9.8,30.28,WNW,289,8.1,8.1,74,0.00,CLR,,0.00,WeatherDisplay:10.37,2013-04-01 12:10:00,
2013-04-01 07:15:00,16.8,9.9,30.28,NW,309,4.6,4.6,74,0.00,CLR,,0.00,WeatherDisplay:10.37,2013-04-01 12:15:00,
2013-04-01 07:20:00,16.8,9.9,30.29,NW,313,3.5,3.5,74,0.00,CLR,,0.00,WeatherDisplay:10.37,2013-04-01 12:20:00,
2013-04-01 07:25:00,16.9,10.0,30.29,WNW,297,8.1,8.1,74,0.00,CLR,,0.00,WeatherDisplay:10.37,2013-04-01 12:25:00,
2013-04-01 07:30:00,16.9,10.0,30.29,WNW,302,4.6,4.6,74,0.00,CLR,,0.00,WeatherDisplay:10.37,2013-04-01 12:30:00,
2013-04-01 07:35:00,17.0,10.1,30.29,NW,314,9.2,9.2,74,0.00,CLR,,0.00,WeatherDisplay:10.37,2013-04-01 12:35:00,
2013-04-01 07:40:00,17.1,10.2,30.29,WNW,294,3.5,3.5,74,0.00,CLR,,0.00,WeatherDisplay:10.37,2013-04-01 12:40:00,
2013-04-01 07:45:00,17.2,10.3,30.30,NW,319,3.5,3.5,74,0.00,CLR,,0.00,WeatherDisplay:10.37,2013-04-01 12:45:00,
2013-04-01 07:50:00,17.3,10.1,30.30,West,279,4.6,4.6,73,0.00,CLR,,0.00,WeatherDisplay:10.37,2013-04-01 12:50:00,
2013-04-01 07:55:00,17.4,10.2,30.30,NW,325,4.6,4.6,73,0.00,CLR,,0.00,WeatherDisplay:10.37,2013-04-01 12:55:00,
2013-04-01 08:00:00,17.6,10.4,30.31,WNW,299,9.2,9.2,73,0.00,CLR,,0.00,WeatherDisplay:10.37,2013-04-01 13:00:00,
2013-04-01 08:05:00,17.6,10.4,30.31,NW,315,4.6,4.6,73,0.00,CLR,,0.00,WeatherDisplay:10.37,2013-04-01 13:05:00,
2013-04-01 08:10:00,17.7,10.2,30.31,West,279,5.8,5.8,72,0.00,CLR,,0.00,WeatherDisplay:10.37,2013-04-01 13:10:00,
2013-04-01 08:15:00,17.9,10.4,30.31,NW,317,3.5,4.2,72,0.00,CLR,,0.00,WeatherDisplay:10.37,2013-04-01 13:15:00,
2013-04-01 08:20:00,18.2,10.7,30.31,NW,325,3.5,3.5,72,0.00,CLR,,0.00,WeatherDisplay:10.37,2013-04-01 13:20:00,
2013-04-01 08:25:00,18.3,10.1,30.31,NNW,342,10.4,10.4,70,0.00,CLR,,0.00,WeatherDisplay:10.37,2013-04-01 13:25:00,
2013-04-01 08:30:00,18.4,10.6,30.31,NW,313,10.4,10.4,71,0.00,CLR,,0.00,WeatherDisplay:10.37,2013-04-01 13:30:00,
2013-04-01 08:36:00,18.5,10.3,30.31,NW,325,7.0,7.0,70,0.00,CLR,,0.00,WeatherDisplay:10.37,2013-04-01 13:36:00,
2013-04-01 08:41:00,18.6,10.1,30.31,NW,324,10.4,10.4,69,0.00,CLR,,0.00,WeatherDisplay:10.37,2013-04-01 13:41:00,
2013-04-01 08:46:00,18.8,10.3,30.31,NNW,331,4.6,4.6,69,0.00,CLR,,0.00,WeatherDisplay:10.37,2013-04-01 13:46:00,
2013-04-01 08:51:00,19.1,10.6,30.31,NNW,338,11.5,11.5,69,0.00,CLR,,0.00,WeatherDisplay:10.37,2013-04-01 13:51:00,
2013-04-01 08:56:00,19.1,10.3,30.31,WNW,296,10.4,10.4,68,0.00,CLR,,0.00,WeatherDisplay:10.37,2013-04-01 13:56:00,
2013-04-01 09:01:00,19.1,10.3,30.32,NW,316,10.4,10.4,68,0.00,CLR,,0.00,WeatherDisplay:10.37,2013-04-01 14:01:00,
2013-04-01 09:06:00,19.2,10.4,30.32,NNW,336,10.4,10.4,68,0.00,CLR,,0.00,WeatherDisplay:10.37,2013-04-01 14:06:00,
2013-04-01 09:11:00,19.3,9.8,30.32,NW,307,10.4,10.4,66,0.00,CLR,,0.00,WeatherDisplay:10.37,2013-04-01 14:11:00,
2013-04-01 09:16:00,19.6,10.4,30.32,NW,309,9.2,9.2,67,0.00,CLR,,0.00,WeatherDisplay:10.37,2013-04-01 14:16:00,
2013-04-01 09:21:00,19.8,10.6,30.32,NW,310,3.5,3.5,67,0.00,CLR,,0.00,WeatherDisplay:10.37,2013-04-01 14:21:00,
2013-04-01 09:27:00,19.9,10.0,30.32,NW,307,11.5,11.5,65,0.00,CLR,,0.00,WeatherDisplay:10.37,2013-04-01 14:27:00,
2013-04-01 09:32:00,20.0,10.5,30.32,NNW,333,4.6,4.6,66,0.00,CLR,,0.00,WeatherDisplay:10.37,2013-04-01 14:32:00,
2013-04-01 09:37:00,20.4,10.8,30.32,NNW,328,5.8,5.8,66,0.00,CLR,,0.00,WeatherDisplay:10.37,2013-04-01 14:37:00,
2013-04-01 09:42:00,20.7,10.4,30.32,NW,319,10.0,10.0,64,0.00,CLR,,0.00,WeatherDisplay:10.37,2013-04-01 14:42:00,
2013-04-01 09:47:00,20.4,10.1,30.32,WNW,292,4.6,4.6,64,0.00,CLR,,0.00,WeatherDisplay:10.37,2013-04-01 14:47:00,
2013-04-01 09:52:00,20.8,10.9,30.33,NNW,341,8.1,8.1,65,0.00,CLR,,0.00,WeatherDisplay:10.37,2013-04-01 14:52:00,
2013-04-01 09:58:00,21.1,10.8,30.33,NW,325,8.1,8.1,64,0.00,CLR,,0.00,WeatherDisplay:10.37,2013-04-01 14:58:00,
2013-04-01 10:03:00,21.1,10.8,30.33,NW,309,6.9,6.9,64,0.00,CLR,,0.00,WeatherDisplay:10.37,2013-04-01 15:03:00,
2013-04-01 10:08:00,21.3,11.0,30.33,NW,309,6.9,6.9,64,0.00,CLR,,0.00,WeatherDisplay:10.37,2013-04-01 15:08:00,
2013-04-01 10:13:00,21.4,10.7,30.33,NNW,340,11.5,11.5,63,0.00,CLR,,0.00,WeatherDisplay:10.37,2013-04-01 15:13:00,
2013-04-01 10:18:00,21.4,10.7,30.33,NNW,339,10.4,10.4,63,0.00,CLR,,0.00,WeatherDisplay:10.37,2013-04-01 15:18:00,
2013-04-01 10:23:00,21.8,11.1,30.33,WNW,289,6.9,6.9,63,0.00,CLR,,0.00,WeatherDisplay:10.37,2013-04-01 15:23:00,
2013-04-01 10:28:00,21.8,10.8,30.33,NW,311,6.9,6.9,62,0.00,CLR,,0.00,WeatherDisplay:10.37,2013-04-01 15:28:00,
2013-04-01 10:33:00,22.2,11.5,30.33,North,349,3.5,3.5,63,0.00,CLR,,0.00,WeatherDisplay:10.37,2013-04-01 15:33:00,
2013-04-01 10:38:00,22.6,11.2,30.33,NNW,327,6.9,6.9,61,0.00,CLR,,0.00,WeatherDisplay:10.37,2013-04-01 15:38:00,
2013-04-01 10:43:00,22.4,11.0,30.33,NNW,345,3.5,3.5,61,0.00,CLR,,0.00,WeatherDisplay:10.37,2013-04-01 15:43:00,
2013-04-01 10:48:00,22.9,11.8,30.33,NW,315,6.9,6.9,62,0.00,CLR,,0.00,WeatherDisplay:10.37,2013-04-01 15:48:00,
2013-04-01 10:53:00,23.3,11.8,30.33,NNW,338,6.9,6.9,61,0.00,CLR,,0.00,WeatherDisplay:10.37,2013-04-01 15:53:00,
2013-04-01 10:58:00,23.2,11.0,30.33,NW,307,10.4,10.4,59,0.00,CLR,,0.00,WeatherDisplay:10.37,2013-04-01 15:58:00,
2013-04-01 11:04:00,23.3,11.4,30.33,WNW,298,5.8,5.8,60,0.00,CLR,,0.00,WeatherDisplay:10.37,2013-04-01 16:04:00,
2013-04-01 11:09:00,23.5,11.6,30.33,WNW,290,3.5,3.5,60,0.00,CLR,,0.00,WeatherDisplay:10.37,2013-04-01 16:09:00,
2013-04-01 11:14:00,23.7,11.1,30.33,NNW,329,11.5,11.5,58,0.00,CLR,,0.00,WeatherDisplay:10.37,2013-04-01 16:14:00,
2013-04-01 11:19:00,23.9,11.3,30.33,NNW,342,6.9,6.9,58,0.00,CLR,,0.00,WeatherDisplay:10.37,2013-04-01 16:19:00,
2013-04-01 11:24:00,24.5,11.8,30.34,NW,325,11.5,11.5,58,0.00,CLR,,0.00,WeatherDisplay:10.37,2013-04-01 16:24:00,
2013-04-01 11:29:00,24.6,11.1,30.34,NNW,331,6.9,6.9,56,0.00,CLR,,0.00,WeatherDisplay:10.37,2013-04-01 16:29:00,
2013-04-01 11:34:00,24.9,12.2,30.34,NNW,346,3.5,3.5,58,0.00,CLR,,0.00,WeatherDisplay:10.37,2013-04-01 16:34:00,
2013-04-01 11:39:00,25.1,12.0,30.34,NNE,27,6.9,6.9,57,0.00,CLR,,0.00,WeatherDisplay:10.37,2013-04-01 16:39:00,
2013-04-01 11:44:00,25.3,12.2,30.34,NW,306,6.9,6.9,57,0.00,CLR,,0.00,WeatherDisplay:10.37,2013-04-01 16:44:00,
2013-04-01 11:49:00,25.0,10.7,30.34,NW,326,1.0,0.0,54,0.00,CLR,,0.00,WeatherDisplay:10.37,2013-04-01 16:49:00,
2013-04-01 11:54:00,25.0,12.3,30.34,WNW,303,6.9,6.9,58,0.00,CLR,,0.00,WeatherDisplay:10.37,2013-04-01 16:54:00,
2013-04-01 11:59:00,25.4,11.9,30.34,WSW,257,3.5,3.5,56,0.00,CLR,,0.00,WeatherDisplay:10.37,2013-04-01 16:59:00,
2013-04-01 12:04:00,25.5,11.6,30.34,NW,311,5.8,5.8,55,0.00,CLR,,0.00,WeatherDisplay:10.37,2013-04-01 17:04:00,
2013-04-01 12:09:00,25.4,11.5,30.34,NW,311,11.5,11.5,55,0.00,CLR,,0.00,WeatherDisplay:10.37,2013-04-01 17:09:00,
2013-04-01 12:14:00,25.4,11.0,30.34,NW,317,3.5,3.5,54,0.00,CLR,,0.00,WeatherDisplay:10.37,2013-04-01 17:14:00,
2013-04-01 12:19:00,26.0,12.0,30.34,NW,306,11.5,11.5,55,0.00,CLR,,0.00,WeatherDisplay:10.37,2013-04-01 17:19:00,
2013-04-01 12:24:00,26.2,11.8,30.34,WNW,295,3.5,3.5,54,0.00,CLR,,0.00,WeatherDisplay:10.37,2013-04-01 17:24:00,
2013-04-01 12:29:00,26.4,12.0,30.34,NW,313,11.5,11.5,54,0.00,CLR,,0.00,WeatherDisplay:10.37,2013-04-01 17:29:00,
2013-04-01 12:34:00,27.0,11.3,30.34,NNW,336,5.8,5.8,51,0.00,CLR,,0.00,WeatherDisplay:10.37,2013-04-01 17:34:00,
2013-04-01 12:39:00,26.9,12.0,30.34,NNW,347,9.2,9.2,53,0.00,CLR,,0.00,WeatherDisplay:10.37,2013-04-01 17:39:00,
2013-04-01 12:44:00,27.2,12.3,30.34,WNW,295,11.5,11.5,53,0.00,CLR,,0.00,WeatherDisplay:10.37,2013-04-01 17:44:00,
2013-04-01 12:49:00,27.5,11.7,30.34,WNW,302,10.4,10.4,51,0.00,CLR,,0.00,WeatherDisplay:10.37,2013-04-01 17:49:00,
2013-04-01 12:54:00,27.6,12.7,30.34,West,269,6.9,6.9,53,0.00,CLR,,0.00,WeatherDisplay:10.37,2013-04-01 17:54:00,
2013-04-01 12:59:00,27.9,12.1,30.34,NW,307,10.4,10.4,51,0.00,CLR,,0.00,WeatherDisplay:10.37,2013-04-01 17:59:00,
2013-04-01 13:04:00,27.9,12.5,30.34,WNW,301,11.5,11.5,52,0.00,CLR,,0.00,WeatherDisplay:10.37,2013-04-01 18:04:00,
2013-04-01 13:09:00,28.1,13.1,30.33,NNW,329,5.8,5.8,53,0.00,CLR,,0.00,WeatherDisplay:10.37,2013-04-01 18:09:00,
2013-04-01 13:14:00,28.4,13.0,30.34,WNW,299,4.6,4.6,52,0.00,CLR,,0.00,WeatherDisplay:10.37,2013-04-01 18:14:00,
2013-04-01 13:19:00,28.8,12.9,30.33,North,355,5.8,5.8,51,0.00,CLR,,0.00,WeatherDisplay:10.37,2013-04-01 18:19:00,
2013-04-01 13:24:00,28.6,12.7,30.33,NW,317,3.5,3.8,51,0.00,CLR,,0.00,WeatherDisplay:10.37,2013-04-01 18:24:00,
2013-04-01 13:29:00,28.8,12.0,30.33,WNW,298,10.4,10.4,49,0.00,CLR,,0.00,WeatherDisplay:10.37,2013-04-01 18:29:00,
2013-04-01 13:34:00,28.8,13.8,30.33,WNW,290,11.5,11.5,53,0.00,CLR,,0.00,WeatherDisplay:10.37,2013-04-01 18:34:00,
2013-04-01 13:39:00,28.6,12.7,30.33,NW,304,16.1,16.1,51,0.00,CLR,,0.00,WeatherDisplay:10.37,2013-04-01 18:39:00,
2013-04-01 13:44:00,28.6,12.7,30.33,WNW,293,6.9,6.9,51,0.00,CLR,,0.00,WeatherDisplay:10.37,2013-04-01 18:44:00,
2013-04-01 13:49:00,28.7,12.8,30.33,NW,314,10.4,10.4,51,0.00,CLR,,0.00,WeatherDisplay:10.37,2013-04-01 18:49:00,
2013-04-01 13:54:00,29.2,13.3,30.33,NNW,340,11.5,11.5,51,0.00,CLR,,0.00,WeatherDisplay:10.37,2013-04-01 18:54:00,
2013-04-01 13:59:00,29.4,13.0,30.33,WNW,286,12.7,12.7,50,0.00,CLR,,0.00,WeatherDisplay:10.37,2013-04-01 18:59:00,
2013-04-01 14:04:00,30.4,14.0,30.33,NW,321,11.5,11.5,50,0.00,CLR,,0.00,WeatherDisplay:10.37,2013-04-01 19:04:00,
2013-04-01 14:09:00,30.6,13.2,30.33,NW,306,6.9,6.9,48,0.00,CLR,,0.00,WeatherDisplay:10.37,2013-04-01 19:09:00,
2013-04-01 14:14:00,30.5,13.6,30.33,NW,325,10.4,10.4,49,0.00,CLR,,0.00,WeatherDisplay:10.37,2013-04-01 19:14:00,
2013-04-01 14:19:00,30.4,12.5,30.33,WNW,299,7.0,7.0,47,0.00,CLR,,0.00,WeatherDisplay:10.37,2013-04-01 19:19:00,
2013-04-01 14:24:00,30.2,13.8,30.33,NNW,340,6.9,6.9,50,0.00,CLR,,0.00,WeatherDisplay:10.37,2013-04-01 19:24:00,
2013-04-01 14:29:00,30.7,14.7,30.33,West,281,9.2,9.2,51,0.00,CLR,,0.00,WeatherDisplay:10.37,2013-04-01 19:29:00,
2013-04-01 14:34:00,30.5,14.5,30.33,West,265,8.1,8.1,51,0.00,CLR,,0.00,WeatherDisplay:10.37,2013-04-01 19:34:00,
2013-04-01 14:39:00,30.4,14.4,30.33,WNW,292,18.4,18.4,51,0.00,CLR,,0.00,WeatherDisplay:10.37,2013-04-01 19:39:00,
2013-04-01 14:44:00,30.4,14.9,30.33,NW,311,11.5,11.5,52,0.00,CLR,,0.00,WeatherDisplay:10.37,2013-04-01 19:44:00,
2013-04-01 14:49:00,30.8,14.8,30.33,WNW,291,10.4,10.4,51,0.00,CLR,,0.00,WeatherDisplay:10.37,2013-04-01 19:49:00,
2013-04-01 14:54:00,30.6,14.6,30.33,NW,322,9.2,9.2,51,0.00,CLR,,0.00,WeatherDisplay:10.37,2013-04-01 19:54:00,
2013-04-01 14:59:00,30.8,14.3,30.32,WNW,298,5.8,6.9,50,0.00,CLR,,0.00,WeatherDisplay:10.37,2013-04-01 19:59:00,
2013-04-01 15:04:00,30.9,15.3,30.33,NW,307,12.7,12.7,52,0.00,CLR,,0.00,WeatherDisplay:10.37,2013-04-01 20:04:00,
2013-04-01 15:09:00,30.8,15.2,30.33,NNW,331,12.7,12.7,52,0.00,CLR,,0.00,WeatherDisplay:10.37,2013-04-01 20:09:00,
2013-04-01 15:14:00,30.9,15.3,30.33,NNW,327,12.7,12.7,52,0.00,CLR,,0.00,WeatherDisplay:10.37,2013-04-01 20:14:00,
2013-04-01 15:19:00,31.0,15.0,30.32,SW,218,12.7,12.7,51,0.00,CLR,,0.00,WeatherDisplay:10.37,2013-04-01 20:19:00,
2013-04-01 15:25:00,31.4,14.4,30.33,NW,318,13.8,13.8,49,0.00,CLR,,0.00,WeatherDisplay:10.37,2013-04-01 20:25:00,
2013-04-01 15:30:00,31.4,14.9,30.32,NW,325,6.9,6.9,50,0.00,CLR,,0.00,WeatherDisplay:10.37,2013-04-01 20:30:00,
2013-04-01 15:35:00,31.6,15.1,30.32,NW,319,10.4,10.4,50,0.00,CLR,,0.00,WeatherDisplay:10.37,2013-04-01 20:35:00,
2013-04-01 15:40:00,31.5,15.0,30.32,WNW,290,16.1,16.1,50,0.00,CLR,,0.00,WeatherDisplay:10.37,2013-04-01 20:40:00,
2013-04-01 15:45:00,31.7,16.1,30.32,WNW,299,7.0,15.0,52,0.00,CLR,,0.00,WeatherDisplay:10.37,2013-04-01 20:45:00,
2013-04-01 15:50:00,31.6,14.6,30.32,NNW,327,10.4,10.4,49,0.00,CLR,,0.00,WeatherDisplay:10.37,2013-04-01 20:50:00,
2013-04-01 15:55:00,31.7,14.7,30.32,NW,311,11.5,11.5,49,0.00,CLR,,0.00,WeatherDisplay:10.37,2013-04-01 20:55:00,
2013-04-01 16:00:00,31.5,14.5,30.32,WNW,292,11.5,11.5,49,0.00,CLR,,0.00,WeatherDisplay:10.37,2013-04-01 21:00:00,
2013-04-01 16:05:00,31.5,14.5,30.32,NW,305,9.2,9.2,49,0.00,CLR,,0.00,WeatherDisplay:10.37,2013-04-01 21:05:00,
2013-04-01 16:10:00,31.6,14.1,30.32,NW,310,12.7,12.7,48,0.00,CLR,,0.00,WeatherDisplay:10.37,2013-04-01 21:10:00,
2013-04-01 16:15:00,32.0,15.4,30.32,WNW,302,11.5,11.5,50,0.00,CLR,,0.00,WeatherDisplay:10.37,2013-04-01 21:15:00,
2013-04-01 16:20:00,32.1,15.1,30.32,WNW,300,11.5,11.5,49,0.00,CLR,,0.00,WeatherDisplay:10.37,2013-04-01 21:20:00,
2013-04-01 16:25:00,32.0,15.0,30.32,NW,322,10.4,10.4,49,0.00,CLR,,0.00,WeatherDisplay:10.37,2013-04-01 21:25:00,
2013-04-01 16:30:00,32.2,15.2,30.32,NNW,327,12.7,12.7,49,0.00,CLR,,0.00,WeatherDisplay:10.37,2013-04-01 21:30:00,
2013-04-01 16:35:00,31.7,14.2,30.31,WNW,302,13.8,13.8,48,0.00,CLR,,0.00,WeatherDisplay:10.37,2013-04-01 21:35:00,
2013-04-01 16:40:00,31.7,14.7,30.31,WNW,286,13.8,13.8,49,0.00,CLR,,0.00,WeatherDisplay:10.37,2013-04-01 21:40:00,
2013-04-01 16:45:00,31.9,14.4,30.31,NW,325,12.7,12.7,48,0.00,CLR,,0.00,WeatherDisplay:10.37,2013-04-01 21:45:00,
2013-04-01 16:50:00,32.2,14.7,30.31,WNW,302,11.5,11.5,48,0.00,CLR,,0.00,WeatherDisplay:10.37,2013-04-01 21:50:00,
2013-04-01 16:55:00,32.4,14.4,30.31,NW,307,15.0,15.0,47,0.00,CLR,,0.00,WeatherDisplay:10.37,2013-04-01 21:55:00,
2013-04-01 17:00:00,32.5,15.0,30.31,WNW,303,11.5,11.5,48,0.00,CLR,,0.00,WeatherDisplay:10.37,2013-04-01 22:00:00,
2013-04-01 17:05:00,32.5,14.5,30.31,WNW,287,12.7,12.7,47,0.00,CLR,,0.00,WeatherDisplay:10.37,2013-04-01 22:05:00,
2013-04-01 17:10:00,32.4,15.3,30.31,NNW,330,16.1,16.1,49,0.00,CLR,,0.00,WeatherDisplay:10.37,2013-04-01 22:10:00,
2013-04-01 17:15:00,32.3,15.7,30.31,NW,320,10.4,10.4,50,0.00,CLR,,0.00,WeatherDisplay:10.37,2013-04-01 22:15:00,
2013-04-01 17:20:00,32.5,15.4,30.31,WNW,302,9.2,9.2,49,0.00,CLR,,0.00,WeatherDisplay:10.37,2013-04-01 22:20:00,
2013-04-01 17:25:00,32.5,15.0,30.31,WNW,286,4.6,4.6,48,0.00,CLR,,0.00,WeatherDisplay:10.37,2013-04-01 22:25:00,
2013-04-01 17:30:00,32.6,16.0,30.31,West,259,9.2,9.2,50,0.00,CLR,,0.00,WeatherDisplay:10.37,2013-04-01 22:30:00,
2013-04-01 17:35:00,32.2,15.6,30.31,WNW,284,15.0,15.0,50,0.00,CLR,,0.00,WeatherDisplay:10.37,2013-04-01 22:35:00,
2013-04-01 17:40:00,31.8,15.3,30.31,WNW,282,10.4,10.4,50,0.00,CLR,,0.00,WeatherDisplay:10.37,2013-04-01 22:40:00,
2013-04-01 17:45:00,32.1,16.0,30.31,WNW,284,11.5,11.5,51,0.00,CLR,,0.00,WeatherDisplay:10.37,2013-04-01 22:45:00,
2013-04-01 17:50:00,32.4,16.3,30.31,WNW,294,9.2,9.2,51,0.00,CLR,,0.00,WeatherDisplay:10.37,2013-04-01 22:50:00,
2013-04-01 17:55:00,32.4,14.9,30.31,WNW,284,11.5,11.5,48,0.00,CLR,,0.00,WeatherDisplay:10.37,2013-04-01 22:55:00,
2013-04-01 18:00:00,32.2,15.6,30.31,WNW,290,11.0,11.0,50,0.00,CLR,,0.00,WeatherDisplay:10.37,2013-04-01 23:00:00,
2013-04-01 18:05:00,32.3,16.2,30.31,WNW,300,15.0,15.0,51,0.00,CLR,,0.00,WeatherDisplay:10.37,2013-04-01 23:05:00,
2013-04-01 18:10:00,32.3,15.7,30.31,NW,313,9.2,9.2,50,0.00,CLR,,0.00,WeatherDisplay:10.37,2013-04-01 23:10:00,
2013-04-01 18:15:00,31.9,15.8,30.31,NW,309,6.9,6.9,51,0.00,CLR,,0.00,WeatherDisplay:10.37,2013-04-01 23:15:00,
2013-04-01 18:20:00,31.7,16.1,30.31,WNW,286,11.5,11.5,52,0.00,CLR,,0.00,WeatherDisplay:10.37,2013-04-01 23:20:00,
2013-04-01 18:25:00,31.8,15.7,30.31,WNW,285,9.2,9.2,51,0.00,CLR,,0.00,WeatherDisplay:10.37,2013-04-01 23:25:00,
2013-04-01 18:30:00,31.7,15.2,30.31,NW,314,10.4,10.4,50,0.00,CLR,,0.00,WeatherDisplay:10.37,2013-04-01 23:30:00,
2013-04-01 18:35:00,31.6,16.0,30.31,West,265,6.9,6.9,52,0.00,CLR,,0.00,WeatherDisplay:10.37,2013-04-01 23:35:00,
2013-04-01 18:40:00,31.3,16.1,30.31,WNW,292,16.1,16.1,53,0.00,CLR,,0.00,WeatherDisplay:10.37,2013-04-01 23:40:00,
2013-04-01 18:45:00,31.1,15.9,30.31,NW,321,16.1,16.1,53,0.00,CLR,,0.00,WeatherDisplay:10.37,2013-04-01 23:45:00,
2013-04-01 18:50:00,30.8,16.1,30.31,NW,323,11.5,11.5,54,0.00,CLR,,0.00,WeatherDisplay:10.37,2013-04-01 23:50:00,
2013-04-01 18:55:00,30.8,16.5,30.31,WNW,291,10.4,10.4,55,0.00,CLR,,0.00,WeatherDisplay:10.37,2013-04-01 23:55:00,
2013-04-01 19:00:00,30.8,15.7,30.31,WNW,299,11.5,11.5,53,0.00,CLR,,0.00,WeatherDisplay:10.37,2013-04-02 00:00:00,
2013-04-01 19:05:00,30.6,15.9,30.31,WNW,298,11.5,11.5,54,0.00,CLR,,0.00,WeatherDisplay:10.37,2013-04-02 00:05:00,
2013-04-01 19:10:00,30.4,16.1,30.31,West,272,9.2,9.2,55,0.00,CLR,,0.00,WeatherDisplay:10.37,2013-04-02 00:10:00,
2013-04-01 19:15:00,30.3,16.5,30.31,WNW,292,12.7,12.7,56,0.00,CLR,,0.00,WeatherDisplay:10.37,2013-04-02 00:15:00,
2013-04-01 19:20:00,30.1,16.7,30.31,NW,304,11.5,11.5,57,0.00,CLR,,0.00,WeatherDisplay:10.37,2013-04-02 00:20:00,
2013-04-01 19:25:00,29.8,16.4,30.31,NW,323,11.5,11.5,57,0.00,CLR,,0.00,WeatherDisplay:10.37,2013-04-02 00:25:00,
2013-04-01 19:30:00,29.6,16.2,30.30,NW,310,9.2,9.2,57,0.00,CLR,,0.00,WeatherDisplay:10.37,2013-04-02 00:30:00,
2013-04-01 19:35:00,29.4,16.4,30.30,NW,315,11.5,11.5,58,0.00,CLR,,0.00,WeatherDisplay:10.37,2013-04-02 00:35:00,
2013-04-01 19:40:00,29.1,16.5,30.31,NNW,336,4.0,4.0,59,0.00,CLR,,0.00,WeatherDisplay:10.37,2013-04-02 00:40:00,
2013-04-01 19:45:00,28.8,16.6,30.30,WNW,290,10.4,10.4,60,0.00,CLR,,0.00,WeatherDisplay:10.37,2013-04-02 00:45:00,
2013-04-01 19:50:00,28.6,16.5,30.31,WNW,295,3.5,3.5,60,0.00,CLR,,0.00,WeatherDisplay:10.37,2013-04-02 00:50:00,
2013-04-01 19:55:00,28.5,16.7,30.31,West,279,5.0,5.0,61,0.00,CLR,,0.00,WeatherDisplay:10.37,2013-04-02 00:55:00,
2013-04-01 20:00:00,28.3,16.6,30.31,WNW,294,5.8,5.8,61,0.00,CLR,,0.00,WeatherDisplay:10.37,2013-04-02 01:00:00,
2013-04-01 20:05:00,28.2,16.5,30.31,NW,322,3.5,3.5,61,0.00,CLR,,0.00,WeatherDisplay:10.37,2013-04-02 01:05:00,
2013-04-01 20:10:00,28.0,16.6,30.31,NW,305,3.5,3.5,62,0.00,CLR,,0.00,WeatherDisplay:10.37,2013-04-02 01:10:00,
2013-04-01 20:15:00,27.8,16.8,30.31,WNW,295,4.6,4.6,63,0.00,CLR,,0.00,WeatherDisplay:10.37,2013-04-02 01:15:00,
2013-04-01 20:20:00,27.7,17.1,30.31,WNW,293,0.0,0.0,64,0.00,CLR,,0.00,WeatherDisplay:10.37,2013-04-02 01:20:00,
2013-04-01 20:25:00,27.5,16.9,30.31,WNW,298,4.6,4.6,64,0.00,CLR,,0.00,WeatherDisplay:10.37,2013-04-02 01:25:00,
2013-04-01 20:30:00,27.4,17.2,30.31,NW,310,3.5,3.5,65,0.00,CLR,,0.00,WeatherDisplay:10.37,2013-04-02 01:30:00,
2013-04-01 20:35:00,27.3,17.1,30.31,NW,315,4.6,4.6,65,0.00,CLR,,0.00,WeatherDisplay:10.37,2013-04-02 01:35:00,
2013-04-01 20:40:00,27.2,16.6,30.31,NW,307,5.0,5.0,64,0.00,CLR,,0.00,WeatherDisplay:10.37,2013-04-02 01:40:00,
2013-04-01 20:45:00,27.1,16.2,30.31,NW,315,3.5,3.5,63,0.00,CLR,,0.00,WeatherDisplay:10.37,2013-04-02 01:45:00,
2013-04-01 20:50:00,27.0,16.4,30.32,NW,315,3.5,3.5,64,0.00,CLR,,0.00,WeatherDisplay:10.37,2013-04-02 01:50:00,
2013-04-01 20:55:00,26.9,16.3,30.32,NW,315,4.0,4.0,64,0.00,CLR,,0.00,WeatherDisplay:10.37,2013-04-02 01:55:00,
2013-04-01 21:00:00,26.9,16.0,30.32,WNW,300,4.6,4.6,63,0.00,CLR,,0.00,WeatherDisplay:10.37,2013-04-02 02:00:00,
2013-04-01 21:06:00,26.7,16.1,30.32,NW,317,3.5,3.5,64,0.00,CLR,,0.00,WeatherDisplay:10.37,2013-04-02 02:06:00,
2013-04-01 21:11:00,26.6,16.1,30.32,WNW,288,3.5,3.5,64,0.00,CLR,,0.00,WeatherDisplay:10.37,2013-04-02 02:11:00,
2013-04-01 21:16:00,26.5,16.0,30.32,NW,312,3.5,3.5,64,0.00,CLR,,0.00,WeatherDisplay:10.37,2013-04-02 02:16:00,
2013-04-01 21:21:00,26.4,16.2,30.33,NW,311,0.0,0.0,65,0.00,CLR,,0.00,WeatherDisplay:10.37,2013-04-02 02:21:00,
2013-04-01 21:26:00,26.3,16.1,30.33,NW,314,3.5,3.5,65,0.00,CLR,,0.00,WeatherDisplay:10.37,2013-04-02 02:26:00,
2013-04-01 21:31:00,26.2,16.0,30.33,NW,316,3.5,4.0,65,0.00,CLR,,0.00,WeatherDisplay:10.37,2013-04-02 02:31:00,
2013-04-01 21:36:00,26.2,16.0,30.33,WNW,302,5.8,5.8,65,0.00,CLR,,0.00,WeatherDisplay:10.37,2013-04-02 02:36:00,
2013-04-01 21:41:00,26.1,15.9,30.33,NW,310,3.5,3.8,65,0.00,CLR,,0.00,WeatherDisplay:10.37,2013-04-02 02:41:00,
2013-04-01 21:46:00,26.0,15.8,30.33,WNW,294,5.8,5.8,65,0.00,CLR,,0.00,WeatherDisplay:10.37,2013-04-02 02:46:00,
2013-04-01 21:51:00,26.0,15.8,30.33,WNW,294,3.5,3.5,65,0.00,CLR,,0.00,WeatherDisplay:10.37,2013-04-02 02:51:00,
2013-04-01 21:56:00,25.8,16.0,30.33,WNW,288,3.5,3.5,66,0.00,CLR,,0.00,WeatherDisplay:10.37,2013-04-02 02:56:00,
2013-04-01 22:01:00,25.7,15.9,30.33,WNW,288,3.5,3.5,66,0.00,CLR,,0.00,WeatherDisplay:10.37,2013-04-02 03:01:00,
2013-04-01 22:06:00,25.6,16.2,30.33,WNW,285,3.0,3.0,67,0.00,CLR,,0.00,WeatherDisplay:10.37,2013-04-02 03:06:00,
2013-04-01 22:12:00,25.4,16.0,30.33,West,281,3.5,3.5,67,0.00,CLR,,0.00,WeatherDisplay:10.37,2013-04-02 03:12:00,
2013-04-01 22:17:00,25.4,16.0,30.34,WNW,301,4.6,4.6,67,0.00,CLR,,0.00,WeatherDisplay:10.37,2013-04-02 03:17:00,
2013-04-01 22:22:00,25.5,16.1,30.34,WNW,284,5.8,5.8,67,0.00,CLR,,0.00,WeatherDisplay:10.37,2013-04-02 03:22:00,
2013-04-01 22:27:00,25.4,16.0,30.34,WNW,296,6.0,6.0,67,0.00,CLR,,0.00,WeatherDisplay:10.37,2013-04-02 03:27:00,
2013-04-01 22:32:00,25.3,15.9,30.34,WNW,298,8.1,8.1,67,0.00,CLR,,0.00,WeatherDisplay:10.37,2013-04-02 03:32:00,
2013-04-01 22:37:00,25.3,15.9,30.34,NW,321,11.5,11.5,67,0.00,CLR,,0.00,WeatherDisplay:10.37,2013-04-02 03:37:00,
2013-04-01 22:42:00,25.2,15.8,30.34,NW,323,5.8,5.8,67,0.00,CLR,,0.00,WeatherDisplay:10.37,2013-04-02 03:42:00,
2013-04-01 22:47:00,25.2,16.1,30.34,WNW,297,9.2,9.2,68,0.00,CLR,,0.00,WeatherDisplay:10.37,2013-04-02 03:47:00,
2013-04-01 22:52:00,25.1,16.0,30.34,WNW,295,3.5,3.5,68,0.00,CLR,,0.00,WeatherDisplay:10.37,2013-04-02 03:52:00,
2013-04-01 22:57:00,25.0,15.9,30.34,NW,325,3.5,3.5,68,0.00,CLR,,0.00,WeatherDisplay:10.37,2013-04-02 03:57:00,
2013-04-01 23:00:00,24.9,16.2,30.34,NW,306,3.5,3.5,69,0.00,CLR,,0.00,WeatherDisplay:10.37,2013-04-02 04:00:00,
2013-04-01 23:01:00,24.9,15.8,30.34,NW,306,2.3,2.3,68,0.00,CLR,,0.00,WeatherDisplay:10.37,2013-04-02 04:01:00,
2013-04-01 23:06:00,24.8,16.1,30.34,NW,306,2.3,2.3,69,0.00,CLR,,0.00,WeatherDisplay:10.37,2013-04-02 04:06:00,
2013-04-01 23:11:00,24.6,16.2,30.34,WNW,286,5.8,5.8,70,0.00,CLR,,0.00,WeatherDisplay:10.37,2013-04-02 04:11:00,
2013-04-01 23:16:00,24.6,16.2,30.34,WNW,290,4.6,4.6,70,0.00,CLR,,0.00,WeatherDisplay:10.37,2013-04-02 04:16:00,
2013-04-01 23:21:00,24.5,16.1,30.34,West,281,3.5,3.5,70,0.00,CLR,,0.00,WeatherDisplay:10.37,2013-04-02 04:21:00,
2013-04-01 23:26:00,24.4,16.0,30.34,WNW,293,5.8,5.8,70,0.00,CLR,,0.00,WeatherDisplay:10.37,2013-04-02 04:26:00,
2013-04-01 23:31:00,24.2,16.1,30.34,West,279,6.9,6.9,71,0.00,CLR,,0.00,WeatherDisplay:10.37,2013-04-02 04:31:00,
2013-04-01 23:36:00,24.1,16.1,30.34,WNW,287,6.9,6.9,71,0.00,CLR,,0.00,WeatherDisplay:10.37,2013-04-02 04:36:00,
2013-04-01 23:41:00,24.1,16.1,30.34,WNW,298,6.9,6.9,71,0.00,CLR,,0.00,WeatherDisplay:10.37,2013-04-02 04:41:00,
2013-04-01 23:47:00,24.0,16.0,30.34,WNW,291,4.6,4.6,71,0.00,CLR,,0.00,WeatherDisplay:10.37,2013-04-02 04:47:00,
2013-04-01 23:52:00,23.9,15.9,30.34,West,281,6.9,6.9,71,0.00,CLR,,0.00,WeatherDisplay:10.37,2013-04-02 04:52:00,
2013-04-01 23:57:00,23.7,15.7,30.34,WNW,295,4.6,4.6,71,0.00,CLR,,0.00,WeatherDisplay:10.37,2013-04-02 04:57:00,